Location: Blangy-Tronville
(49.8790°N, 2.4226°E)
Time: 00:29:23
(UTC+00:00)

Meteor 2-3 Rocket - Pass Details

Date: 18 November 2025
Orbit: 841 x 884 km, 81.2° (Epoch: 05 December)

Event Time Altitude Azimuth Distance (km) Brightness Sun altitude
Rises 18:28:56 0° 347° (NNW) 3,467 7.0 -23.2°
Reaches altitude 10° 18:31:23 10° 347° (NNW) 2,518 6.3 -23.6°
Maximum altitude 18:37:07 88° 260° (W) 865 3.6 -24.5°
Drops below altitude 10° 18:42:45 10° 171° (S) 2,472 6.0 -25.5°
Sets 18:45:08 0° 171° (S) 3,398 6.8 -25.8°
